Weather History for KBKD - April, 2013

Change the Weather History Date:

Monday, April 1, 2013

  Actual Average (KABI) Record (KABI)
Temperature  
Mean Temperature 67 °F 61 °F  
Max Temperature 84 °F 74 °F 98 °F (1946)
Min Temperature 50 °F 48 °F 27 °F (1899)
Degree Days  
Heating Degree Days 0 6  
Month to date heating degree days 6  
Since 1 July heating degree days 2437  
Cooling Degree Days 2 2  
Month to date cooling degree days 2  
Year to date cooling degree days 36  
Growing Degree Days 17 (Base 50)    
Moisture  
Dew Point 48 °F    
Average Humidity 53    
Maximum Humidity 92    
Minimum Humidity 25    
Precipitation  
Precipitation 0.10 in 0.05 in 2.03 in (1916)
Month to date precipitation 0.05  
Year to date precipitation 4.17  
Sea Level Pressure  
Sea Level Pressure 29.99 in    
Wind  
Wind Speed 6 mph (SE)    
Max Wind Speed 25 mph    
Max Gust Speed 40 mph    
Visibility 10 miles    
Events Rain , Thunderstorm    
T = Trace of Precipitation, MM = Missing Value Source: NWS Daily Summary

Daily Weather History Graph

Daily Weather History Graph

Search for Another Location

Airport or City:

Trip Planner

Search our weather history database for the weather conditions in past years. The results will help you decide how hot, cold, wet, or windy it might be!

Date:

Astronomy

Apr. 01, 2013 Rise Set
Actual Time 7:23 AM CDT 7:55 PM CDT
Civil Twilight 6:58 AM CDT 8:20 PM CDT
Nautical Twilight 6:29 AM CDT 8:49 PM CDT
Astronomical Twilight 5:59 AM CDT 9:19 PM CDT
Moon 12:51 AM CDT (4/1) 11:25 AM CDT (4/1)
Length of Visible Light 13h 22m
Length of Day
12h 32m
Waning Gibbous, 67% of the Moon is Illuminated
Apr 1
Waning Gibbous
Apr 2
Last Quarter
Apr 10
New
Apr 18
First Quarter
Apr 25
Full

Hourly Weather History & Observations

Time (CDT) Temp. Dew Point Humidity Pressure Visibility Wind Dir Wind Speed Gust Speed Precip Events Conditions
12:15 AM 61.5 °F 45.9 °F 56% 30.01 in 10.0 mi East 3.5 mph - N/A   Clear
12:35 AM 61.0 °F 45.5 °F 57% 30.01 in 10.0 mi East 3.5 mph - N/A   Clear
12:55 AM 61.0 °F 45.0 °F 56% 30.02 in 10.0 mi SE 4.6 mph - N/A   Clear
1:15 AM 60.1 °F 45.1 °F 58% 30.02 in 10.0 mi ESE 3.5 mph - N/A   Clear
1:35 AM 59.9 °F 45.1 °F 58% 30.03 in 10.0 mi ESE 3.5 mph - N/A   Clear
1:55 AM 57.6 °F 45.9 °F 65% 30.03 in 10.0 mi Calm Calm - N/A   Clear
2:15 AM 56.5 °F 45.9 °F 68% 30.03 in 10.0 mi Calm Calm - N/A   Clear
2:35 AM 55.8 °F 45.9 °F 69% 30.03 in 10.0 mi Calm Calm - N/A   Clear
2:55 AM 56.5 °F 45.9 °F 68% 30.03 in 10.0 mi Calm Calm - N/A   Clear
3:15 AM 55.9 °F 45.7 °F 68% 30.03 in 10.0 mi Calm Calm - N/A   Clear
3:35 AM 56.5 °F 45.3 °F 66% 30.03 in 10.0 mi SSE 5.8 mph - N/A   Clear
3:55 AM 55.4 °F 45.3 °F 69% 30.02 in 10.0 mi SSE 5.8 mph - N/A   Clear
4:15 AM 54.0 °F 46.0 °F 75% 30.02 in 10.0 mi SSE 3.5 mph - N/A   Clear
4:35 AM 54.1 °F 46.4 °F 75% 30.02 in 10.0 mi SSE 3.5 mph - N/A   Clear
4:55 AM 54.5 °F 46.9 °F 76% 30.02 in 10.0 mi SSE 3.5 mph - N/A   Clear
5:15 AM 53.4 °F 46.0 °F 76% 30.02 in 10.0 mi SSE 3.5 mph - N/A   Clear
5:35 AM 52.2 °F 45.7 °F 79% 30.03 in 10.0 mi South 3.5 mph - N/A   Clear
5:55 AM 52.5 °F 46.0 °F 79% 30.03 in 10.0 mi SSE 3.5 mph - N/A   Clear
6:15 AM 50.5 °F 45.5 °F 83% 30.03 in 10.0 mi South 3.5 mph - N/A   Clear
6:55 AM 52.5 °F 47.5 °F 83% 30.04 in 10.0 mi Calm Calm - N/A   Clear
7:15 AM 51.6 °F 46.9 °F 84% 30.04 in 10.0 mi Calm Calm - N/A   Clear
7:35 AM 52.5 °F 47.5 °F 83% 30.05 in 10.0 mi Calm Calm - N/A   Clear
8:15 AM 54.5 °F 49.1 °F 82% 30.05 in 10.0 mi Calm Calm - N/A   Clear
8:35 AM 56.7 °F 50.4 °F 79% 30.06 in 10.0 mi Calm Calm - N/A   Clear
9:15 AM 63.3 °F 52.3 °F 67% 30.07 in 10.0 mi South 5.8 mph - N/A   Clear
9:35 AM 65.5 °F 52.7 °F 63% 30.07 in 10.0 mi SSE 8.1 mph - N/A   Clear
9:55 AM 68.0 °F 52.7 °F 58% 30.07 in 10.0 mi South 6.9 mph - N/A   Clear
10:15 AM 70.0 °F 51.6 °F 52% 30.07 in 10.0 mi SE 10.4 mph 16.1 mph N/A   Clear
10:35 AM 71.2 °F 49.8 °F 47% 30.07 in 10.0 mi SE 10.4 mph - N/A   Clear
11:15 AM 74.5 °F 50.7 °F 43% 30.07 in 10.0 mi SE 9.2 mph - N/A Thunderstorm Clear
11:35 AM 75.2 °F 50.2 °F 41% 30.07 in 10.0 mi SSE 6.9 mph - N/A   Clear
11:55 AM 75.9 °F 50.2 °F 40% 30.06 in 10.0 mi SE 6.9 mph - N/A   Clear
12:15 PM 77.0 °F 49.5 °F 38% 30.05 in 10.0 mi South 8.1 mph - N/A   Clear
12:35 PM 78.1 °F 48.6 °F 35% 30.05 in 10.0 mi South 8.1 mph - N/A   Clear
1:15 PM 79.7 °F 46.9 °F 32% 30.03 in 10.0 mi ESE 11.5 mph - N/A   Clear
1:35 PM 80.8 °F 45.1 °F 28% 30.02 in 10.0 mi South 9.2 mph - N/A   Clear
1:55 PM 81.1 °F 45.1 °F 28% 30.00 in 10.0 mi East 9.2 mph - N/A   Clear
2:15 PM 82.0 °F 45.5 °F 28% 29.99 in 10.0 mi South 9.2 mph - N/A   Clear
2:35 PM 83.7 °F 45.3 °F 26% 29.99 in 10.0 mi South 9.2 mph - N/A   Clear
2:55 PM 83.3 °F 45.0 °F 26% 29.98 in 10.0 mi SSE 12.7 mph 19.6 mph N/A   Clear
3:15 PM 83.5 °F 45.3 °F 26% 29.96 in 10.0 mi ESE 8.1 mph 17.3 mph N/A   Clear
3:35 PM 84.4 °F 45.0 °F 25% 29.96 in 10.0 mi SSE 9.2 mph 18.4 mph N/A   Clear
4:15 PM 83.5 °F 45.0 °F 26% 29.94 in 10.0 mi SSE 9.2 mph 16.1 mph N/A   Clear
4:35 PM 84.0 °F 45.7 °F 26% 29.93 in 10.0 mi South 8.1 mph 18.4 mph N/A   Clear
5:15 PM 84.0 °F 44.8 °F 25% 29.91 in 10.0 mi SSE 12.7 mph 18.4 mph N/A   Clear
5:35 PM 84.0 °F 44.2 °F 25% 29.90 in 10.0 mi SSE 13.8 mph 20.7 mph N/A   Scattered Clouds
6:15 PM 82.9 °F 45.7 °F 27% 29.88 in 10.0 mi SE 12.7 mph 19.6 mph N/A   Clear
6:35 PM 83.3 °F 45.3 °F 26% 29.88 in 10.0 mi SE 9.2 mph 21.9 mph N/A   Scattered Clouds
6:55 PM 82.8 °F 45.3 °F 27% 29.88 in 10.0 mi SSE 11.5 mph 19.6 mph N/A   Scattered Clouds
7:15 PM 82.4 °F 45.5 °F 27% 29.89 in 10.0 mi ESE 10.4 mph 17.3 mph N/A   Scattered Clouds
7:35 PM 81.5 °F 45.5 °F 28% 29.88 in 10.0 mi ESE 15.0 mph - N/A   Mostly Cloudy
7:55 PM 79.0 °F 46.8 °F 32% 29.88 in 10.0 mi ESE 12.7 mph 26.5 mph N/A   Scattered Clouds
8:15 PM 77.0 °F 46.8 °F 34% 29.89 in 10.0 mi ESE 17.3 mph 20.7 mph N/A   Clear
8:35 PM 76.1 °F 46.9 °F 36% 29.89 in 10.0 mi ESE 13.8 mph 20.7 mph N/A   Clear
8:55 PM 75.2 °F 47.3 °F 37% 29.90 in 10.0 mi ESE 15.0 mph 20.7 mph N/A   Clear
9:15 PM 74.3 °F 47.5 °F 39% 29.89 in 10.0 mi ESE 16.1 mph 20.7 mph N/A   Clear
9:35 PM 73.9 °F 48.2 °F 40% 29.87 in 10.0 mi ESE 19.6 mph 27.6 mph N/A   Clear
9:55 PM 73.8 °F 49.1 °F 42% 29.89 in 10.0 mi East 12.7 mph 26.5 mph N/A   Scattered Clouds
10:15 PM 67.5 °F 51.3 °F 56% 29.99 in 10.0 mi NW 25.3 mph 40.3 mph N/A Thunderstorm Thunderstorm
10:35 PM 60.4 °F 58.1 °F 92% 30.04 in 2.5 mi North 12.7 mph 29.9 mph 0.02 in Rain , Thunderstorm Heavy Thunderstorms and Rain
10:55 PM 61.0 °F 58.1 °F 90% 30.02 in 7.0 mi NE 15.0 mph 21.9 mph 0.05 in Rain , Thunderstorm Heavy Thunderstorms and Rain
11:15 PM 62.6 °F 57.0 °F 82% 30.01 in 10.0 mi East 13.8 mph 23.0 mph 0.02 in Rain , Thunderstorm Light Thunderstorms and Rain
11:35 PM 62.1 °F 57.0 °F 84% 29.97 in 10.0 mi East 20.7 mph 26.5 mph 0.04 in Thunderstorm Unknown
11:55 PM 62.4 °F 55.9 °F 79% 29.96 in 10.0 mi East 16.1 mph 21.9 mph 0.05 in Rain , Thunderstorm Light Thunderstorms and Rain